839  
NZUS99 KSGF 210407  
HRRSGF  
 
HOURLY WEATHER  
NATIONAL WEATHER SERVICE SPRINGFIELD MO  
1000 PM CST MON NOV 20 2017  
   
.....SGF CWA...
 
 
 
CITY SKY/WX TMP DP RH WIND PRES REMARKS  
SPRINGFIELD CLOUDY 49 31 49 S13 29.89F  
JOPLIN PTCLDY 53 32 44 S14G26 29.89R  
WEST PLAINS PTCLDY 45 26 47 S7 29.96R  
ROLLA MOCLDY 49 28 44 S15 29.88S  
OSAGE BEACH CLOUDY 50 30 46 S9 29.87F  
BRANSON MOCLDY 48 28 46 S6 29.94S  
   
.....SURROUNDING SGF CWA...
 
 
 
CITY SKY/WX TMP DP RH WIND PRES REMARKS  
CHANUTE CLOUDY 52 30 43 S9 29.86R  
PARSONS CLOUDY 52 31 44 S8 29.88R  
COFFEYVILLE CLOUDY 53 31 42 S14 29.88R  
EMPORIA CLOUDY 52 29 41 S16 29.78F  
GROVE OK CLOUDY 52 34 50 S8 29.92S  
ROGERS AR CLOUDY 50 31 48 S17G23 29.93F  
SILOAM SPRINGS CLOUDY 48 31 51 S14 29.94F  
HARRISON AR CLOUDY 50 30 46 VRB6 29.94S  
NEAR YELLVILLE CLOUDY 49 28 44 SW3 29.96S  
   
.....KANSAS AND MISSOURI...
 
 
 
CITY SKY/WX TMP DP RH WIND PRES REMARKS  
KANSAS CTY INT CLEAR 53 29 39 SW23G30 29.73S  
DOWNTOWN KC CLEAR 55 30 38 SW22G30 29.74S  
COLUMBIA MOCLDY 50 29 44 S12 29.83F  
SEDALIA CLOUDY 55 31 39 SW20G26 29.81S  
ST JOSEPH CLEAR 52 30 43 SW13 29.72R  
ST LOUIS CLOUDY 48 29 47 S9 29.88S  
SPIRIT OF STL PTCLDY 50 28 42 SW10 29.86S  
KIRKSVILLE CLOUDY 53 32 44 SW15G22 29.74F  
WICHITA CLOUDY 51 31 46 S12 29.80F  
TOPEKA PTCLDY 56 30 37 SW12 29.74S  
OLATHE CLEAR 49 31 49 S12 29.77F  
   
.....TENNESSEE...
 
 
 
CITY SKY/WX TMP DP RH WIND PRES REMARKS  
MEMPHIS CLEAR 40 28 62 S8 30.06S WCI 34  
NASHVILLE CLEAR 38 28 67 S3 30.10S  
   
.....ARKANSAS....
 
 
 
CITY SKY/WX TMP DP RH WIND PRES REMARKS  
FAYETTEVILLE CLOUDY 50 32 50 S12 29.95R  
FT SMITH CLOUDY 44 34 67 NE5 29.97S  
LITTLE ROCK PTCLDY 41 30 65 S8 30.05S  
   
.....OKLAHOMA....
 
 
 
CITY SKY/WX TMP DP RH WIND PRES REMARKS  
TULSA CLOUDY 54 30 40 S14 29.90S  
PONCA CITY CLOUDY 52 29 41 S8 29.84F  
MCALESTER CLOUDY 52 33 48 S6 29.96R  
OKLAHOMA CITY CLOUDY 46 30 53 S8 29.87S  
   
.....IOWA.........
 
 
 
CITY SKY/WX TMP DP RH WIND PRES REMARKS  
DES MOINES CLOUDY 48 30 49 SW10 29.65S  
QUAD CITIES CLOUDY 51 30 44 S16 29.67F  
   
.....ILLINOIS.....
 
 
 
CITY SKY/WX TMP DP RH WIND PRES REMARKS  
QUINCY PTCLDY 50 30 46 S14 29.78S  
CHICAGO CLOUDY 46 30 53 SW24G36 29.71F  
 
CLICK HERE TO GO TO PREVIOUS BULLETINS.

The Nexlab MO Page
The Nexlab KS Page Main Text Page